When you browse on this site, cookies collect data to enhance your experience and personalize the content and advertising you see.
Visit our Privacy Policy to learn more. By continuing to use the site, you agree to this use of cookies and data.

Meteo pe oră la Kazatin

Astăzi, 4 Iulie, Sâmbătă

Timp Temperatura Precipitaţii Vânt Presiune Umiditate
00:00 +22°C° 0 mm 1 m/s 734 mmHg 83%
01:00 +21°C° 0 mm 1 m/s 734 mmHg 84%
02:00 +21°C° 0 mm 1 m/s 734 mmHg 87%
03:00 +20°C° 0.1 mm 2 m/s 734 mmHg 89%
04:00 +20°C° 0.1 mm 2 m/s 734 mmHg 91%
05:00 +19°C° 0.1 mm 3 m/s 734 mmHg 93%
06:00 +19°C° 0 mm 3 m/s 734 mmHg 93%
07:00 +20°C° 0 mm 3 m/s 735 mmHg 93%
08:00 +20°C° 0 mm 3 m/s 735 mmHg 93%
09:00 +20°C° 0 mm 3 m/s 735 mmHg 92%
10:00 +20°C° 0 mm 2 m/s 735 mmHg 91%
11:00 +21°C° 0 mm 2 m/s 735 mmHg 90%
12:00 +23°C° 0 mm 2 m/s 735 mmHg 86%
13:00 +24°C° 0 mm 2 m/s 736 mmHg 81%
14:00 +25°C° 0 mm 2 m/s 736 mmHg 77%
15:00 +25°C° 0 mm 2 m/s 735 mmHg 78%
16:00 +25°C° 0 mm 2 m/s 735 mmHg 79%
17:00 +25°C° 0 mm 2 m/s 735 mmHg 80%
18:00 +24°C° 0 mm 2 m/s 735 mmHg 84%
19:00 +23°C° 0 mm 2 m/s 735 mmHg 88%
20:00 +21°C° 0 mm 2 m/s 735 mmHg 92%
21:00 +20°C° 0.7 mm 2 m/s 735 mmHg 93%
22:00 +20°C° 0.7 mm 2 m/s 735 mmHg 94%
23:00 +19°C° 0.7 mm 2 m/s 735 mmHg 95%

Mâine, 5 Iulie, Duminică

Timp Temperatura Precipitaţii Vânt Presiune Umiditate
00:00 +19°C° 0.1 mm 2 m/s 735 mmHg 95%
01:00 +19°C° 0.1 mm 2 m/s 735 mmHg 95%
02:00 +19°C° 0.1 mm 2 m/s 735 mmHg 95%
03:00 +19°C° 0.1 mm 2 m/s 735 mmHg 95%
04:00 +18°C° 0.1 mm 2 m/s 735 mmHg 95%
05:00 +18°C° 0.1 mm 2 m/s 735 mmHg 96%
06:00 +20°C° 0 mm 3 m/s 735 mmHg 92%
07:00 +21°C° 0 mm 3 m/s 735 mmHg 89%
08:00 +22°C° 0 mm 3 m/s 735 mmHg 85%
09:00 +24°C° 0.2 mm 3 m/s 736 mmHg 80%
10:00 +25°C° 0.2 mm 3 m/s 736 mmHg 75%
11:00 +26°C° 0.2 mm 3 m/s 736 mmHg 70%
12:00 +26°C° 0.3 mm 3 m/s 736 mmHg 68%
13:00 +27°C° 0.3 mm 4 m/s 736 mmHg 67%
14:00 +27°C° 0.3 mm 4 m/s 735 mmHg 66%
15:00 +27°C° 0 mm 3 m/s 735 mmHg 66%
16:00 +27°C° 0 mm 3 m/s 735 mmHg 66%
17:00 +27°C° 0 mm 3 m/s 735 mmHg 66%
18:00 +25°C° 0 mm 3 m/s 735 mmHg 71%
19:00 +24°C° 0 mm 2 m/s 735 mmHg 76%
20:00 +21°C° 0 mm 2 m/s 735 mmHg 81%
21:00 +20°C° 0 mm 2 m/s 735 mmHg 83%
22:00 +20°C° 0 mm 2 m/s 735 mmHg 86%
23:00 +19°C° 0 mm 2 m/s 735 mmHg 88%

Poimâine, 6 Iulie, Luni

Timp Temperatura Precipitaţii Vânt Presiune Umiditate
00:00 +18°C° 0 mm 2 m/s 735 mmHg 88%
01:00 +18°C° 0 mm 2 m/s 735 mmHg 88%
02:00 +17°C° 0 mm 2 m/s 735 mmHg 87%
03:00 +17°C° 0 mm 2 m/s 735 mmHg 87%
04:00 +18°C° 0 mm 1 m/s 734 mmHg 87%
05:00 +18°C° 0 mm 1 m/s 734 mmHg 86%
06:00 +20°C° 0 mm 1 m/s 734 mmHg 81%
07:00 +22°C° 0 mm 1 m/s 735 mmHg 76%
08:00 +21°C° 0 mm 0 m/s 735 mmHg 71%
09:00 +23°C° 0 mm 0 m/s 735 mmHg 67%
10:00 +24°C° 0 mm 0 m/s 734 mmHg 64%
11:00 +25°C° 0 mm 0 m/s 734 mmHg 60%
12:00 +26°C° 0 mm 0 m/s 734 mmHg 57%
13:00 +26°C° 0 mm 0 m/s 734 mmHg 55%
14:00 +29°C° 0 mm 1 m/s 733 mmHg 52%
15:00 +29°C° 0 mm 1 m/s 733 mmHg 54%
16:00 +29°C° 0 mm 1 m/s 732 mmHg 55%
17:00 +29°C° 0 mm 1 m/s 732 mmHg 56%
18:00 +27°C° 0 mm 1 m/s 732 mmHg 63%
19:00 +25°C° 0 mm 1 m/s 732 mmHg 69%
20:00 +24°C° 0 mm 1 m/s 731 mmHg 75%
21:00 +23°C° 0 mm 1 m/s 731 mmHg 77%
22:00 +22°C° 0 mm 1 m/s 731 mmHg 78%
23:00 +21°C° 0 mm 1 m/s 731 mmHg 80%

7 Iulie, Marţi

Timp Temperatura Precipitaţii Vânt Presiune Umiditate
00:00 +21°C° 0 mm 1 m/s 731 mmHg 81%
01:00 +21°C° 0 mm 1 m/s 730 mmHg 83%
02:00 +18°C° 0 mm 0 m/s 730 mmHg 84%
03:00 +20°C° 0 mm 1 m/s 730 mmHg 84%
04:00 +20°C° 0 mm 1 m/s 730 mmHg 85%
05:00 +21°C° 0 mm 1 m/s 730 mmHg 85%
06:00 +22°C° 0.1 mm 1 m/s 730 mmHg 82%
07:00 +23°C° 0.1 mm 1 m/s 730 mmHg 78%
08:00 +25°C° 0.1 mm 1 m/s 730 mmHg 75%
09:00 +26°C° 1 mm 1 m/s 730 mmHg 71%
10:00 +27°C° 1 mm 1 m/s 729 mmHg 67%
11:00 +27°C° 1 mm 2 m/s 729 mmHg 63%
12:00 +27°C° 1.5 mm 2 m/s 729 mmHg 66%
13:00 +27°C° 1.5 mm 2 m/s 729 mmHg 68%
14:00 +27°C° 1.5 mm 2 m/s 729 mmHg 71%
15:00 +25°C° 2.7 mm 3 m/s 729 mmHg 79%
16:00 +22°C° 2.7 mm 4 m/s 729 mmHg 87%
17:00 +19°C° 2.7 mm 6 m/s 729 mmHg 95%
18:00 +19°C° 0.9 mm 6 m/s 729 mmHg 95%
19:00 +17°C° 0.9 mm 6 m/s 729 mmHg 95%
20:00 +16°C° 0.9 mm 6 m/s 730 mmHg 96%
21:00 +15°C° 0.9 mm 6 m/s 729 mmHg 96%
22:00 +15°C° 0.9 mm 7 m/s 729 mmHg 96%
23:00 +14°C° 0.9 mm 7 m/s 729 mmHg 96%

8 Iulie, Miercuri

Timp Temperatura Precipitaţii Vânt Presiune Umiditate
00:00 +12°C° 1.2 mm 8 m/s 730 mmHg 95%
01:00 +12°C° 1.2 mm 8 m/s 730 mmHg 95%
02:00 +12°C° 1.2 mm 8 m/s 730 mmHg 95%
03:00 +11°C° 2.3 mm 8 m/s 730 mmHg 95%
04:00 +11°C° 2.3 mm 8 m/s 731 mmHg 95%
05:00 +11°C° 2.3 mm 7 m/s 731 mmHg 95%
06:00 +11°C° 1.3 mm 8 m/s 731 mmHg 94%
07:00 +11°C° 1.3 mm 8 m/s 732 mmHg 94%
08:00 +11°C° 1.3 mm 9 m/s 732 mmHg 93%
09:00 +11°C° 0.5 mm 8 m/s 733 mmHg 92%
10:00 +11°C° 0.5 mm 7 m/s 733 mmHg 90%
11:00 +11°C° 0.5 mm 7 m/s 734 mmHg 89%
12:00 +14°C° 0.1 mm 7 m/s 734 mmHg 82%
13:00 +15°C° 0.1 mm 7 m/s 734 mmHg 76%
14:00 +17°C° 0.1 mm 7 m/s 735 mmHg 69%
15:00 +17°C° 0.1 mm 7 m/s 735 mmHg 69%
16:00 +17°C° 0.1 mm 6 m/s 735 mmHg 69%
17:00 +19°C° 0.1 mm 6 m/s 735 mmHg 69%
18:00 +16°C° 0.1 mm 5 m/s 735 mmHg 74%
19:00 +15°C° 0.1 mm 5 m/s 735 mmHg 79%
20:00 +14°C° 0.1 mm 4 m/s 735 mmHg 85%
21:00 +13°C° 0 mm 4 m/s 736 mmHg 86%
22:00 +12°C° 0 mm 4 m/s 736 mmHg 87%
23:00 +12°C° 0 mm 4 m/s 736 mmHg 88%

9 Iulie, Joi

Timp Temperatura Precipitaţii Vânt Presiune Umiditate
00:00 +11°C° 0 mm 4 m/s 736 mmHg 90%
01:00 +11°C° 0 mm 4 m/s 737 mmHg 92%
02:00 +10°C° 0 mm 4 m/s 737 mmHg 94%
03:00 +10°C° 0 mm 3 m/s 737 mmHg 94%
04:00 +10°C° 0 mm 3 m/s 737 mmHg 94%
05:00 +10°C° 0 mm 3 m/s 737 mmHg 94%
06:00 +12°C° 0 mm 4 m/s 738 mmHg 89%
07:00 +14°C° 0 mm 4 m/s 738 mmHg 84%
08:00 +17°C° 0 mm 4 m/s 738 mmHg 78%
09:00 +18°C° 0 mm 4 m/s 738 mmHg 74%
10:00 +19°C° 0 mm 5 m/s 738 mmHg 70%
11:00 +20°C° 0 mm 5 m/s 739 mmHg 66%
12:00 +21°C° 0 mm 4 m/s 738 mmHg 64%
13:00 +21°C° 0 mm 4 m/s 738 mmHg 63%
14:00 +22°C° 0 mm 4 m/s 738 mmHg 61%
15:00 +22°C° 0.1 mm 4 m/s 738 mmHg 63%
16:00 +21°C° 0.1 mm 4 m/s 738 mmHg 65%
17:00 +21°C° 0.1 mm 3 m/s 738 mmHg 66%
18:00 +20°C° 0 mm 3 m/s 738 mmHg 72%
19:00 +19°C° 0 mm 2 m/s 738 mmHg 77%
20:00 +17°C° 0 mm 2 m/s 738 mmHg 82%
21:00 +17°C° 0 mm 2 m/s 738 mmHg 84%
22:00 +16°C° 0 mm 2 m/s 738 mmHg 86%
23:00 +15°C° 0 mm 2 m/s 738 mmHg 89%
Arată mai mult